Theta_e
317 317 317 317 316 316 316 316 315 315 315 315 314 314 313 313 313 314 314 314 314 315 314 312 311 312 308 300 298 309 336 330 323 307 301 298 295 296 291 293 294 292 297 300 303 303 301
317 317 318 317 316 316 316 316 316 315 316 315 315 315 314 314 313 314 314 313 313 314 314 313 311 312 304 290 306 320 321 319 311 302 300 299 300 302 297 296 294 297 297 299 300 301 299
318 318 318 318 317 316 316 316 316 316 316 316 316 316 315 315 314 313 313 314 314 314 314 314 312 312 304 299 314 315 310 305 305 304 302 303 303 302 299 296 298 297 293 297 298 299 298
318 318 318 318 317 317 316 316 316 316 315 315 316 315 316 315 315 314 313 313 313 313 314 314 314 309 299 313 310 307 308 305 306 305 304 308 307 302 298 300 299 294 292 288 295 299 300
318 318 318 318 317 317 317 316 316 316 315 314 315 315 315 315 314 313 313 312 313 315 315 314 308 303 301 319 313 312 309 306 307 306 305 309 305 300 300 294 289 290 286 289 294 298 297
318 318 318 318 318 317 316 316 316 316 315 314 314 314 314 315 314 313 312 311 312 314 313 313 312 301 307 309 310 308 309 309 307 307 304 303 297 294 292 289 284 287 287 290 291 296 296
318 318 318 317 318 317 316 316 316 315 315 313 313 313 313 314 314 312 307 303 306 304 306 301 303 305 309 316 313 307 306 305 307 300 293 298 292 288 292 293 294 293 291 290 294 298 294
318 318 317 317 318 317 316 315 313 314 313 313 313 312 312 313 313 311 307 299 308 308 301 309 309 307 313 315 304 302 305 300 299 292 296 293 289 295 297 296 295 294 291 290 293 298 295
318 317 318 317 317 316 315 314 314 314 314 314 313 313 313 313 311 306 301 303 309 308 298 304 310 309 311 309 305 299 302 303 299 294 293 290 294 300 298 296 295 294 291 291 292 296 295
317 317 317 316 315 315 315 314 315 314 314 313 313 312 312 311 305 304 301 308 308 308 294 301 303 309 309 306 302 309 304 305 300 295 295 293 298 297 296 295 296 292 297 296 294 291 285
317 317 317 316 315 314 313 314 314 314 313 313 312 312 311 311 301 301 310 309 307 305 286 302 303 309 306 302 304 304 307 303 297 297 295 293 295 295 294 295 297 293 298 295 295 289 286
317 317 316 315 315 314 313 313 313 313 312 312 312 313 311 305 305 304 308 307 307 294 288 301 303 301 300 302 303 304 305 305 304 298 297 296 300 298 297 300 299 300 295 292 290 287 281
316 316 316 315 314 314 313 313 312 312 312 312 312 312 308 307 302 309 307 305 292 288 304 300 297 299 298 298 300 302 300 297 293 288 288 294 294 297 301 296 299 296 288 282 280 280 281
315 315 315 314 314 313 313 312 311 311 311 311 310 308 306 308 306 308 305 296 287 298 300 306 301 299 295 298 298 299 297 293 298 295 290 288 288 297 302 297 293 293 289 282 278 278 282
314 314 315 315 314 313 312 311 310 310 310 309 307 304 306 309 310 308 301 291 295 299 305 301 301 297 296 300 298 297 294 294 296 296 289 288 291 301 302 302 298 294 290 293 286 287 282
314 314 315 314 313 312 312 311 311 311 310 308 300 302 306 314 313 308 300 298 301 306 304 302 294 298 295 297 296 295 296 301 300 301 297 294 287 297 300 300 300 295 298 287 286 278 278
314 314 314 313 312 312 311 311 311 311 309 307 302 304 312 314 311 302 295 298 303 304 304 300 297 295 295 294 295 293 295 300 302 300 300 295 291 292 296 293 290 290 288 291 291 290 283
313 314 314 313 312 311 310 311 310 310 307 303 299 300 312 313 301 303 299 304 302 302 304 302 301 299 296 296 294 294 295 299 302 301 295 295 291 286 290 296 297 293 290 291 285 286 290
312 313 314 313 312 311 310 310 310 310 307 300 295 299 311 310 296 298 302 303 303 301 301 300 299 300 299 294 289 296 297 301 303 301 296 294 287 281 283 287 292 291 292 292 292 289 286
311 312 313 314 312 311 310 310 309 309 308 302 297 296 300 304 303 299 297 298 299 303 300 300 298 298 295 293 293 291 297 301 302 300 305 298 288 285 279 283 287 287 290 291 291 285 285
309 311 312 313 312 311 310 310 309 308 308 302 299 298 298 294 296 295 294 296 298 296 299 299 296 296 293 288 290 290 294 295 299 305 295 291 283 287 288 290 291 290 290 290 287 287 284
309 310 311 312 313 311 310 309 309 309 308 302 296 295 299 295 299 296 294 295 296 297 296 295 294 296 294 289 289 288 290 290 290 295 291 291 283 288 287 291 291 288 290 290 291 291 290
308 309 310 311 312 311 310 309 309 309 307 299 301 302 298 297 296 293 294 296 297 297 297 298 295 293 292 293 294 293 293 294 293 291 289 288 286 283 281 288 287 282 287 289 291 294 292
309 309 310 311 312 310 310 308 309 310 308 301 301 300 294 293 296 296 298 298 296 295 293 296 295 292 296 298 296 294 292 293 293 292 292 288 286 287 282 283 276 286 295 298 295 296 296
310 310 311 311 310 310 309 308 309 310 310 301 303 301 296 291 296 298 298 295 295 295 293 294 297 298 297 294 288 285 286 288 292 293 291 293 289 284 279 277 284 288 295 293 290 290 297
309 311 309 309 309 309 309 308 309 310 310 302 303 305 299 292 293 300 295 296 290 289 292 295 297 298 296 290 287 280 278 286 286 291 295 293 294 287 284 279 276 288 298 300 297 285 299
307 308 308 308 308 308 308 309 309 310 311 304 302 305 300 292 298 298 293 292 294 290 288 291 293 293 293 285 282 279 281 290 281 285 284 289 288 285 285 282 285 295 298 301 282 285 298
306 306 307 308 307 308 308 309 309 310 311 304 301 304 299 293 297 300 300 294 294 289 286 290 290 291 288 283 283 283 282 286 284 288 287 286 285 284 285 283 281 298 297 290 292 295 297
305 306 306 307 307 307 307 307 308 310 310 307 299 305 304 295 294 301 302 301 299 297 291 289 289 291 289 285 285 284 283 283 282 277 291 281 287 287 288 288 297 299 296 297 297 295 296
Wind_Speed
14 14 14 15 15 15 15 14 13 15 16 15 15 14 14 14 13 12 12 11 10 8 8 5 4 4 3 1 11 5 7 21 12 7 8 6 5 5 5 7 4 5 9 9 14 14 8
15 15 15 15 15 14 15 16 15 14 16 16 16 15 15 14 14 13 12 12 11 8 7 5 3 2 1 3 6 7 10 15 11 11 7 7 8 9 4 8 8 7 9 12 11 13 6
15 15 15 13 13 13 14 15 17 15 15 16 16 16 16 15 16 15 14 12 10 10 7 5 3 4 3 14 3 5 10 8 7 10 7 11 10 1 0 7 6 7 6 7 8 10 8
15 15 14 12 13 13 13 16 17 18 17 17 15 17 17 16 17 17 16 15 14 13 9 4 3 3 9 6 4 6 4 4 7 7 7 6 9 8 6 4 7 3 3 2 7 6 6
14 14 13 13 13 13 12 14 16 18 18 19 15 17 18 18 17 19 16 15 16 12 6 7 3 2 11 9 6 10 10 6 10 7 7 10 4 3 4 4 6 6 2 4 9 4 3
15 15 14 13 13 13 13 14 15 16 18 19 17 15 18 18 17 15 14 18 7 2 3 5 6 3 7 5 5 8 9 11 5 6 4 6 5 3 4 5 5 4 2 5 7 5 3
14 15 15 15 14 15 15 15 15 15 18 19 19 18 16 18 16 12 7 4 4 0 5 11 9 5 3 5 7 5 7 7 4 5 4 2 4 5 9 7 7 6 5 8 11 11 4
13 14 15 16 16 15 15 17 19 16 19 19 20 19 18 16 14 10 3 5 6 4 5 19 13 11 12 7 3 5 7 6 6 5 4 2 7 11 9 7 8 8 10 12 8 10 7
12 13 14 14 14 15 16 17 18 18 19 19 18 18 18 15 11 3 7 12 1 12 1 4 9 7 7 4 8 9 11 6 5 5 5 7 10 10 9 10 8 9 9 6 8 6 2
11 12 13 13 13 14 17 19 19 19 20 21 18 18 18 15 1 3 6 11 11 2 4 3 6 6 4 4 2 6 10 8 3 8 6 7 15 11 7 9 8 16 12 8 4 2 5
11 12 13 13 13 14 19 19 20 20 20 22 19 20 18 8 5 4 6 4 10 3 3 5 5 3 5 7 2 4 6 4 8 7 7 8 3 2 3 3 3 9 6 6 1 1 3
12 12 13 13 14 16 17 18 20 21 21 24 22 19 17 2 5 13 9 6 3 2 3 4 5 7 5 3 3 4 5 5 4 2 1 5 3 3 3 7 3 6 1 5 5 4 2
12 13 13 14 14 16 17 18 20 22 24 26 26 22 8 2 7 2 4 4 4 0 4 3 5 6 5 5 4 8 5 5 5 3 4 5 4 2 4 2 7 10 7 4 5 4 5
13 13 13 14 15 16 17 19 20 22 25 27 29 23 5 7 7 3 5 6 3 5 6 6 6 8 6 6 4 5 6 4 3 6 2 3 2 3 2 4 0 2 5 6 4 4 4
13 14 14 14 15 16 17 19 21 22 25 29 24 3 2 6 6 3 5 5 3 6 8 2 6 4 3 3 5 3 4 2 3 9 8 4 4 2 11 5 3 4 4 4 4 3 2
13 13 13 14 14 16 18 19 21 23 25 27 4 4 5 6 8 4 4 0 4 11 4 5 3 3 4 4 5 4 3 4 4 6 1 1 1 5 6 5 4 4 3 1 3 2 5
13 12 12 13 15 16 18 19 20 22 26 23 3 3 5 6 5 5 2 5 4 4 5 4 3 3 4 3 4 3 2 3 4 3 8 4 4 6 4 3 2 6 5 4 4 4 4
17 14 13 12 14 15 17 18 20 20 24 7 4 2 3 4 4 2 3 3 2 2 4 5 3 2 3 3 3 2 1 3 3 2 3 3 4 0 4 7 5 3 1 3 5 3 3
15 15 16 11 13 14 16 17 18 17 12 4 3 4 3 5 3 1 4 6 4 3 5 4 7 3 3 3 4 1 4 4 6 4 4 0 3 3 9 6 6 6 3 3 4 4 6
16 15 15 12 12 14 15 16 18 19 11 1 2 3 5 4 1 3 3 3 3 4 5 5 3 6 5 2 1 2 3 2 5 5 8 7 3 6 6 4 1 6 7 5 7 4 4
16 15 15 14 11 13 15 16 18 21 23 4 2 3 1 2 3 0 1 1 4 2 3 4 6 5 5 3 3 4 4 4 6 8 4 6 4 3 4 6 5 8 12 13 9 10 11
15 15 13 14 12 10 13 15 17 20 21 2 2 4 5 4 5 2 2 5 6 4 4 4 6 4 6 4 2 2 2 2 2 2 3 3 3 3 4 8 10 13 14 13 15 13 13
13 13 13 13 10 9 11 13 16 17 13 3 4 4 3 5 4 1 1 3 5 3 7 7 4 4 7 3 1 3 5 5 5 5 3 4 6 3 4 4 7 8 7 8 6 2 3
13 13 13 14 8 7 10 12 13 13 8 1 3 1 3 3 4 3 5 6 7 5 5 2 4 4 2 3 2 3 3 6 7 8 7 6 5 3 4 4 3 6 6 2 8 3 2
18 11 11 6 6 7 9 12 11 12 11 1 3 2 2 2 4 7 7 5 5 4 2 5 3 3 2 5 4 5 5 1 5 8 9 8 6 3 3 3 7 8 3 3 1 4 3
19 12 8 7 7 8 9 10 11 11 11 1 3 1 2 2 3 8 3 3 3 2 5 3 3 1 6 4 3 1 3 1 2 2 4 7 4 4 3 4 6 2 2 2 2 4 3
15 13 10 9 9 9 9 10 11 11 10 2 3 3 2 1 3 5 4 2 3 4 3 3 4 5 5 3 2 2 3 2 1 2 2 3 1 7 7 5 6 3 4 1 4 5 3
11 11 11 8 8 9 9 10 10 10 10 4 3 4 3 1 5 4 6 4 3 3 4 3 4 5 4 3 2 3 2 3 2 2 5 5 4 3 2 3 6 3 2 3 6 3 6
9 9 10 10 6 7 9 10 11 10 9 4 2 3 0 3 5 2 5 4 3 6 6 2 5 2 2 4 2 1 2 3 2 2 2 1 6 3 5 3 5 9 7 2 3 4 4
Wind_Direction
342 342 341 339 334 331 329 330 331 329 328 331 332 332 332 329 327 326 327 325 318 302 291 282 294 314 347 133 250 272 45 156 154 156 186 176 163 179 178 191 228 176 259 257 251 258 237
341 342 341 337 334 329 330 329 331 331 326 326 327 328 327 326 324 321 320 319 317 312 283 273 269 298 184 254 234 153 113 149 165 168 187 159 201 203 245 208 158 220 226 253 266 261 243
336 336 336 334 332 332 330 331 330 331 327 321 322 323 324 327 323 321 318 315 313 304 300 269 247 240 250 239 9 135 143 173 167 179 173 210 222 152 38 323 241 241 252 286 259 248 226
329 329 327 330 326 325 330 332 330 329 330 326 324 321 320 326 323 319 315 313 307 298 277 235 239 287 249 251 246 292 203 198 196 201 218 193 198 213 179 239 356 346 93 310 280 225 244
321 321 326 329 324 320 326 328 325 324 327 325 322 319 318 321 322 318 312 303 299 293 237 181 155 203 265 293 182 219 177 200 191 208 235 259 250 203 46 73 6 6 245 290 286 217 252
314 317 321 320 321 323 325 325 322 324 327 323 323 320 317 317 316 316 310 298 275 73 161 182 263 335 272 232 198 164 202 208 173 202 251 185 56 54 34 81 215 242 288 280 266 289 290
308 313 321 324 327 325 326 323 323 331 323 325 327 323 319 316 316 315 332 350 85 190 234 198 190 234 279 261 133 180 170 165 190 121 159 200 88 216 227 203 205 238 242 254 275 269 234
306 315 320 321 323 324 326 326 332 325 324 327 325 323 321 312 311 301 275 233 220 116 264 225 237 247 279 275 272 190 139 147 132 166 171 28 217 222 221 224 226 241 251 270 282 271 189
317 315 315 321 321 324 326 325 323 320 316 313 315 314 317 314 314 263 216 233 348 10 178 248 199 205 230 178 198 190 150 179 142 158 174 182 243 215 231 260 246 246 222 226 215 283 216
320 318 321 321 323 324 325 325 318 319 317 312 314 320 322 322 251 214 232 246 238 51 41 245 184 247 200 166 246 173 177 149 174 186 199 211 244 242 259 245 246 253 237 226 252 40 269
330 323 323 323 324 326 330 320 317 318 318 312 311 318 320 308 282 237 228 122 134 95 110 153 163 193 162 154 161 204 149 130 183 211 127 241 65 20 260 208 293 239 232 229 196 121 49
334 328 324 323 326 331 326 318 318 318 319 311 309 310 324 43 199 242 304 330 106 60 124 224 141 176 125 184 275 144 115 95 131 92 236 232 238 231 226 294 289 294 44 39 62 90 16
336 333 329 327 327 330 321 319 321 322 321 314 309 308 294 229 229 348 280 96 62 121 346 199 178 150 166 165 212 138 130 113 121 78 300 352 279 247 237 349 12 35 48 357 346 353 219
339 330 326 329 330 324 324 322 325 324 323 318 316 312 187 207 225 337 5 52 95 355 265 263 144 141 177 158 201 149 135 152 221 163 129 162 340 104 344 132 78 21 138 148 233 212 254
335 331 330 331 328 327 328 329 328 328 327 322 319 319 234 247 215 130 66 59 173 219 245 85 48 80 145 40 97 107 136 190 233 176 168 184 242 63 68 39 77 320 61 156 129 346 105
327 329 331 328 326 329 331 333 335 332 330 326 311 339 273 239 123 68 72 133 240 220 7 57 104 55 87 360 66 73 38 345 65 45 66 215 22 356 1 33 40 119 203 16 16 330 280
325 327 327 329 326 331 332 336 339 336 335 329 326 22 263 131 80 62 186 227 223 35 49 57 95 82 81 98 72 55 58 12 58 33 61 76 93 297 30 15 59 1 0 17 98 125 217
329 327 318 326 323 329 334 337 340 343 339 36 337 37 298 87 66 97 244 271 163 98 30 57 104 119 129 104 75 121 220 110 70 72 70 334 131 324 261 277 283 178 95 95 130 283 300
324 324 319 322 321 329 333 337 340 343 6 334 346 277 313 101 154 243 265 265 64 75 44 44 35 52 91 120 97 39 79 106 97 80 139 261 22 22 343 4 2 70 103 122 98 98 230
332 325 322 317 323 327 334 337 339 333 338 196 357 350 328 48 200 113 301 313 110 45 54 76 45 48 77 82 152 117 115 212 104 94 110 83 101 159 197 233 190 312 312 239 193 180 228
324 320 324 316 320 325 333 338 342 333 335 135 170 279 196 327 334 23 113 286 136 108 88 62 18 73 121 83 27 75 31 43 51 138 75 105 181 195 252 272 294 286 273 274 250 230 227
318 318 326 329 316 325 334 342 345 340 339 34 56 36 337 289 289 13 9 23 90 58 55 64 94 52 65 87 87 124 59 81 200 230 108 19 209 163 258 244 258 275 281 277 264 261 259
311 314 319 314 319 326 335 350 348 351 354 16 319 330 103 296 325 51 221 48 55 90 37 67 116 91 76 34 356 235 184 188 198 148 130 141 137 113 262 347 321 283 238 256 232 134 213
317 309 311 308 305 331 335 354 348 356 15 253 267 44 41 295 354 309 111 92 83 71 119 3 42 87 218 288 288 326 277 238 200 211 156 148 138 140 259 19 253 239 317 247 128 133 331
336 308 310 355 356 348 340 349 348 350 350 308 289 47 48 313 307 2 68 104 72 32 66 80 53 154 225 45 40 350 340 328 242 219 190 167 150 157 180 207 290 308 16 1 132 224 216
345 356 21 0 2 357 349 346 345 345 347 4 283 292 84 119 341 314 52 7 113 50 31 114 19 20 70 74 62 218 228 288 296 163 334 161 129 122 170 204 230 181 304 234 197 255 263
344 347 354 355 358 354 349 345 343 342 349 350 285 342 110 82 308 346 65 109 77 74 105 30 351 10 63 65 90 180 262 278 250 110 112 84 70 220 219 233 271 228 276 187 106 222 249
330 339 342 341 345 344 343 345 339 340 345 26 273 9 89 107 287 9 9 49 31 74 128 255 41 351 36 81 144 260 192 274 19 326 170 164 202 215 252 225 255 242 313 193 222 232 237
316 315 321 322 329 335 339 338 336 340 342 15 337 325 27 135 236 292 253 224 162 174 131 33 166 85 179 98 41 10 339 348 108 268 31 246 185 193 208 258 317 321 235 293 198 218 262